Location: Eaton
(41.3139°N, 82.0207°W)
Time: 17:01:19
(UTC+00:00)

SPOT 1/Viking Rocket - Pass Details

Date: 17 June 2021
Orbit: 778 x 793 km, 98.4° (Epoch: 02 August)

Event Time Altitude Azimuth Distance (km) Brightness Sun altitude
Exits shadow 02:06:54 12° 146° (SE) 2,155 5.2 -10.2°
Maximum altitude 02:11:25 53° 72° (ENE) 952 3.8 -10.8°
Drops below altitude 10° 02:16:25 10° 356° (N) 2,338 6.8 -11.4°
Sets 02:18:47 0° 352° (N) 3,270 7.7 -11.7°
